GW3823 Weather Reports


Display with metric or nautical units.
time (UTC)temp
F
wind
direction
speed
MPH
gust
MPH
rain 1hr
in
rain 24hr
in
rain mn
in
humidity
%
barometer
mb
20260905024304 77 52 4.0 5.0 0.00 0.00 0.00 46 1014.8
20260905023804 66 38 5.0 9.0 0.00 0.00 0.00 46 1015.3
20260905023305 64 39 2.0 5.0 0.00 0.00 0.00 47 1014.2
20260905022805 66 71 5.0 9.0 0.00 0.00 0.00 46 1015.1
20260905022306 64 63 6.0 9.0 0.00 0.00 0.00 46 1014.0
20260905021804 65 68 6.0 9.0 0.00 0.00 0.00 47 1015.0
20260905021304 64 66 2.0 3.0 0.00 0.00 0.00 37 1013.6
20260905020805 65 116 1.0 1.0 0.00 0.00 0.00 47 1014.7
20260905020304 64 44 1.0 1.0 0.00 0.00 0.00 38 1013.4
20260905015804 64 309 0.0 1.0 0.00 0.00 0.00 45 1014.2
20260905015306 81 318 1.0 1.0 0.00 0.00 0.00 30 1015.1
20260905014804 65 289 1.0 1.0 0.00 0.00 0.00 45 1014.0
20260905014304 65 229 1.0 1.0 0.00 0.00 0.00 44 1014.8
20260905013804 65 258 1.0 2.0 0.00 0.00 0.00 44 1013.7
20260905013304 65 255 2.0 2.0 0.00 0.00 0.00 43 1014.1
20260905012804 66 153 1.0 3.0 0.00 0.00 0.00 43 1013.2
20260905012306 81 83 2.0 3.0 0.00 0.00 0.00 40 1013.6
20260905011804 71 22 0.0 0.0 0.00 0.00 0.00 32 1014.6
20260905011304 69 22 0.0 1.0 0.00 0.00 0.00 40 1013.4
20260905010804 70 63 1.0 3.0 0.00 0.00 0.00 41 1014.2
20260905010305 68 78 3.0 5.0 0.00 0.00 0.00 39 1012.9
20260905005804 69 54 2.0 5.0 0.00 0.00 0.00 41 1016.0
20260905005306 69 46 3.0 5.0 0.00 0.00 0.00 40 1014.5
20260905004805 84 67 2.0 5.0 0.00 0.00 0.00 38 1014.8
20260905004304 83 24 3.0 6.0 0.00 0.00 0.00 21 1015.0
20260905003804 84 70 4.0 6.0 0.00 0.00 0.00 38 1013.4
20260905003304 84 16 0.0 2.0 0.00 0.00 0.00 34 1014.3
20260905002804 74 204 1.0 2.0 0.00 0.00 0.00 32 1013.0
20260905002306 84 279 1.0 2.0 0.00 0.00 0.00 31 1013.8
20260905001804 84 154 1.0 3.0 0.00 0.00 0.00 27 1014.6
20260905001304 84 325 1.0 5.0 0.00 0.00 0.00 31 1013.4
20260905000804 84 251 2.0 3.0 0.00 0.00 0.00 31 1014.4
20260905000304 84 223 2.0 3.0 0.00 0.00 0.00 29 1013.3
20260904235804 84 270 3.0 7.0 0.00 0.00 0.00 29 1014.0
20260904235306 76 80 5.0 7.0 0.00 0.00 0.00 29 1012.9
20260904234804 84 154 3.0 10.0 0.00 0.00 0.00 28 1013.8
20260904233804 84 207 2.0 9.0 0.00 0.00 0.00 26 1013.7
20260904233304 84 160 6.0 10.0 0.00 0.00 0.00 27 1014.4
20260904232804 84 215 4.0 10.0 0.00 0.00 0.00 27 1013.4
20260904232306 84 169 3.0 9.0 0.00 0.00 0.00 26 1014.2
20260904231804 77 343 6.0 12.0 0.00 0.00 0.00 28 1012.7
20260904231305 84 241 3.0 9.0 0.00 0.00 0.00 28 1013.5
20260904230304 84 214 3.0 6.0 0.00 0.00 0.00 25 1014.4
20260904225804 84 199 4.0 13.0 0.00 0.00 0.00 25 1012.8
20260904225306 84 188 7.0 10.0 0.00 0.00 0.00 27 1012.7
20260904223805 84 163 6.0 15.0 0.00 0.00 0.00 27 1012.5
20260904223304 84 216 3.0 8.0 0.00 0.00 0.00 26 1017.4
20260904222804 84 183 2.0 10.0 0.00 0.00 0.00 26 1012.6
20260904221805 84 190 5.0 16.0 0.00 0.00 0.00 26 1012.6
20260904221304 84 176 6.0 16.0 0.00 0.00 0.00 28 1012.6
20260904220304 84 186 4.0 13.0 0.00 0.00 0.00 26 1012.8
20260904214804 83 177 10.0 13.0 0.00 0.00 0.00 26 1016.9
20260904214304 83 217 6.0 14.0 0.00 0.00 0.00 27 1012.8
20260904213804 83 245 3.0 15.0 0.00 0.00 0.00 28 1012.8
20260904213304 78 198 9.0 13.0 0.00 0.00 0.00 29 1012.7
20260904212804 83 272 3.0 13.0 0.00 0.00 0.00 26 1012.9
20260904212306 83 240 3.0 12.0 0.00 0.00 0.00 30 1020.9
20260904211804 76 228 7.0 18.0 0.00 0.00 0.00 30 1012.9
20260904211306 78 149 5.0 16.0 0.00 0.00 0.00 30 1012.9
20260904184805 78 134 6.0 15.0 0.00 0.00 0.00 32 1014.0
20260904184305 78 168 3.0 7.0 0.00 0.00 0.00 31 1013.9
20260904183804 78 206 2.0 7.0 0.00 0.00 0.00 32 1014.0
20260904182306 78 160 3.0 8.0 0.00 0.00 0.00 31 1014.0
20260904181804 78 277 2.0 13.0 0.00 0.00 0.00 33 1023.1
20260904181305 78 160 6.0 13.0 0.00 0.00 0.00 31 1014.2
20260904180805 78 151 4.0 9.0 0.00 0.00 0.00 32 1014.1
20260904180304 78 249 3.0 10.0 0.00 0.00 0.00 31 1014.1
20260904175804 73 196 3.0 14.0 0.00 0.00 0.00 34 1014.3
20260904174805 72 163 5.0 10.0 0.00 0.00 0.00 33 1014.3
20260904174304 73 146 3.0 13.0 0.00 0.00 0.00 34 1023.9
20260904173804 71 144 7.0 13.0 0.00 0.00 0.00 33 1014.4
20260904173305 71 151 8.0 17.0 0.00 0.00 0.00 35 1019.2
20260904172305 71 158 3.0 16.0 0.00 0.00 0.00 36 1014.5
20260904171804 70 153 10.0 15.0 0.00 0.00 0.00 36 1014.4
20260904171304 71 144 6.0 16.0 0.00 0.00 0.00 36 1014.5
20260904170804 69 165 6.0 17.0 0.00 0.00 0.00 37 1014.6
20260904170304 70 156 12.0 17.0 0.00 0.00 0.00 37 1014.5
20260904164805 69 162 6.0 14.0 0.00 0.00 0.00 37 1014.4
20260904164305 68 152 7.0 14.0 0.00 0.00 0.00 37 1014.7
20260904163304 68 160 6.0 10.0 0.00 0.00 0.00 38 1014.2
20260904162804 67 209 3.0 9.0 0.00 0.00 0.00 38 1019.3
20260904161804 65 150 6.0 10.0 0.00 0.00 0.00 41 1018.6
20260904161304 64 145 3.0 9.0 0.00 0.00 0.00 42 1014.4
20260904160804 64 149 5.0 9.0 0.00 0.00 0.00 42 1020.8
20260904160304 64 146 7.0 10.0 0.00 0.00 0.00 43 1014.6
20260904155804 62 147 6.0 10.0 0.00 0.00 0.00 45 1014.5
20260904155306 61 218 2.0 8.0 0.00 0.00 0.00 45 1014.5
20260904154304 59 149 6.0 9.0 0.00 0.00 0.00 47 1019.1
20260904153805 59 143 4.0 7.0 0.00 0.00 0.00 48 1014.6
20260904153304 60 211 2.0 5.0 0.00 0.00 0.00 46 1014.5
20260904152805 58 111 2.0 10.0 0.00 0.00 0.00 49 1014.7
20260904152306 58 165 6.0 9.0 0.00 0.00 0.00 50 1014.6
20260904151804 56 164 2.0 7.0 0.00 0.00 0.00 51 1014.6
20260904151305 55 117 3.0 6.0 0.00 0.00 0.00 52 1014.7
20260904150804 55 90 2.0 6.0 0.00 0.00 0.00 53 1014.8
20260904150304 54 62 5.0 6.0 0.00 0.00 0.00 54 1014.8
20260904145306 52 38 6.0 8.0 0.00 0.00 0.00 57 1014.9
20260904144804 52 54 4.0 8.0 0.00 0.00 0.00 58 1014.8
20260904144304 52 50 3.0 7.0 0.00 0.00 0.00 59 1015.0
20260904143805 51 76 4.0 7.0 0.00 0.00 0.00 59 1023.1
20260904143305 50 58 5.0 7.0 0.00 0.00 0.00 60 1015.1
20260904142804 50 45 3.0 6.0 0.00 0.00 0.00 61 1023.6
20260904142306 50 58 3.0 6.0 0.00 0.00 0.00 62 1015.1
20260904141804 49 40 2.0 6.0 0.00 0.00 0.00 63 1015.2
20260904141304 49 33 3.0 6.0 0.00 0.00 0.00 64 1015.1
20260904140304 47 74 5.0 7.0 0.00 0.00 0.00 66 1015.0
20260904135306 46 57 5.0 9.0 0.00 0.00 0.00 67 1015.1
20260904134804 46 58 5.0 9.0 0.00 0.00 0.00 69 1017.9
20260904134304 46 219 2.0 7.0 0.00 0.00 0.00 70 1014.8
20260904133804 45 75 1.0 5.0 0.00 0.00 0.00 72 1014.8
20260904132804 44 93 2.0 9.0 0.00 0.00 0.00 73 1014.7
20260904132306 44 37 6.0 9.0 0.00 0.00 0.00 73 1014.7
20260904131805 43 43 4.0 6.0 0.00 0.00 0.00 74 1014.6
20260904131304 43 51 2.0 5.0 0.00 0.00 0.00 73 1023.6
20260904130804 43 22 3.0 6.0 0.00 0.00 0.00 74 1014.4
20260904130303 43 35 3.0 6.0 0.00 0.00 0.00 72 1014.4
20260904125804 43 56 5.0 6.0 0.00 0.00 0.00 73 1014.4
20260904125305 43 33 3.0 7.0 0.00 0.00 0.00 73 1014.4
20260904124804 43 49 6.0 7.0 0.00 0.00 0.00 72 1022.2
20260904124304 44 45 6.0 7.0 0.00 0.00 0.00 72 1014.2
20260904123804 44 65 5.0 8.0 0.00 0.00 0.00 72 1022.9
20260904123304 44 66 6.0 8.0 0.00 0.00 0.00 72 1014.4
20260904122804 44 34 4.0 6.0 0.00 0.00 0.00 71 1014.1
20260904122306 44 45 3.0 7.0 0.00 0.00 0.00 71 1014.1
20260904121804 44 48 4.0 7.0 0.00 0.00 0.00 71 1014.1
20260904121304 44 43 5.0 8.0 0.00 0.00 0.00 71 1014.1
20260904120304 44 50 3.0 7.0 0.00 0.00 0.00 72 1019.4
20260904115804 44 32 5.0 7.0 0.00 0.00 0.00 71 1014.0
20260904115306 45 49 5.0 7.0 0.00 0.00 0.00 69 1014.0
20260904114804 44 58 4.0 7.0 0.00 0.00 0.00 70 1013.8
20260904114304 45 58 3.0 8.0 0.00 0.00 0.00 70 1014.0
20260904113804 44 62 5.0 8.0 0.00 0.00 0.00 69 1017.5
20260904113304 45 66 5.0 7.0 0.00 0.00 0.00 69 1014.0
20260904111304 44 113 1.0 9.0 0.00 0.00 0.00 70 1014.0
20260904110804 45 59 6.0 9.0 0.00 0.00 0.00 68 1013.8
20260904110304 44 56 7.0 9.0 0.00 0.00 0.00 69 1013.9
20260904105804 44 40 3.0 6.0 0.00 0.00 0.00 70 1014.0
20260904104804 45 45 5.0 7.0 0.00 0.00 0.00 67 1014.0
20260904104304 45 57 5.0 8.0 0.00 0.00 0.00 66 1018.4
20260904103804 45 78 5.0 9.0 0.00 0.00 0.00 68 1013.8
20260904103304 45 86 5.0 12.0 0.00 0.00 0.00 66 1013.9
20260904102804 45 66 7.0 12.0 0.00 0.00 0.00 67 1014.0
20260904102306 45 54 4.0 9.0 0.00 0.00 0.00 68 1013.8
20260904101804 47 48 7.0 15.0 0.00 0.00 0.00 65 1018.8
20260904100804 45 52 5.0 9.0 0.00 0.00 0.00 66 1013.9
20260904100304 45 56 5.0 7.0 0.00 0.00 0.00 68 1013.9
20260904095804 45 51 5.0 8.0 0.00 0.00 0.00 67 1013.8
20260904095306 47 31 5.0 9.0 0.00 0.00 0.00 67 1013.8
20260904094804 47 65 5.0 9.0 0.00 0.00 0.00 64 1013.8
20260904093804 45 65 6.0 8.0 0.00 0.00 0.00 64 1013.7
20260904092306 46 67 5.0 7.0 0.00 0.00 0.00 63 1017.3
20260904091304 47 43 6.0 8.0 0.00 0.00 0.00 64 1013.6
20260904090803 46 78 3.0 8.0 0.00 0.00 0.00 64 1013.6
20260904090304 46 71 5.0 8.0 0.00 0.00 0.00 63 1013.6
20260904085804 46 56 5.0 10.0 0.00 0.00 0.00 64 1022.0
20260904084804 48 63 4.0 9.0 0.00 0.00 0.00 54 1013.6
20260904084304 47 62 6.0 8.0 0.00 0.00 0.00 64 1013.6
20260904083804 47 54 5.0 8.0 0.00 0.00 0.00 64 1013.6
20260904083304 47 56 7.0 8.0 0.00 0.00 0.00 63 1022.0
20260904082804 48 55 4.0 8.0 0.00 0.00 0.00 58 1013.6
20260904081804 48 71 6.0 12.0 0.00 0.00 0.00 61 1013.9
20260904080805 47 56 6.0 8.0 0.00 0.00 0.00 62 1013.6
20260904080306 47 55 4.0 8.0 0.00 0.00 0.00 61 1013.8
20260904075805 48 65 4.0 8.0 0.00 0.00 0.00 61 1013.7
20260904075307 49 45 5.0 8.0 0.00 0.00 0.00 61 1014.0
20260904074807 48 64 5.0 10.0 0.00 0.00 0.00 60 1013.9
20260904074305 48 67 7.0 10.0 0.00 0.00 0.00 60 1013.8
20260904073805 48 54 7.0 10.0 0.00 0.00 0.00 53 1020.1
20260904073305 48 52 5.0 10.0 0.00 0.00 0.00 60 1013.8
20260904072306 49 56 5.0 7.0 0.00 0.00 0.00 59 1013.9
20260904071805 49 54 6.0 7.0 0.00 0.00 0.00 57 1013.9
20260904070805 50 72 3.0 7.0 0.00 0.00 0.00 57 1013.9
20260904070306 49 62 6.0 8.0 0.00 0.00 0.00 56 1013.8
20260904065805 49 72 5.0 6.0 0.00 0.00 0.00 57 1014.5
20260904065306 51 53 2.0 8.0 0.00 0.00 0.00 58 1015.6
20260904063305 50 91 5.0 8.0 0.00 0.00 0.00 57 1015.0
20260904062805 50 93 6.0 12.0 0.00 0.00 0.00 56 1014.0
20260904062306 51 74 5.0 10.0 0.00 0.00 0.00 56 1014.9
20260904060805 53 66 6.0 9.0 0.00 0.00 0.00 52 1020.3
20260904055306 61 63 5.0 9.0 0.00 0.00 0.00 52 1013.7
20260904054305 61 67 4.0 8.0 0.00 0.00 0.00 52 1014.0
20260904053805 61 71 6.0 8.0 0.00 0.00 0.00 51 1021.3
20260904053305 52 74 4.0 9.0 0.00 0.00 0.00 51 1015.9
20260904052307 61 58 6.0 13.0 0.00 0.00 0.00 41 1013.6
20260904051806 61 89 6.0 10.0 0.00 0.00 0.00 50 1013.5
20260904051305 61 52 5.0 12.0 0.00 0.00 0.00 40 1021.4
20260904050806 61 71 7.0 12.0 0.00 0.00 0.00 50 1013.5
20260904050306 61 84 5.0 9.0 0.00 0.00 0.00 50 1013.6
20260904045805 53 88 4.0 7.0 0.00 0.00 0.00 49 1013.6
20260904045307 54 71 4.0 6.0 0.00 0.00 0.00 49 1014.4
20260904044806 55 74 5.0 10.0 0.00 0.00 0.00 40 1015.3
20260904044305 54 95 6.0 10.0 0.00 0.00 0.00 49 1014.1
20260904043805 56 73 6.0 12.0 0.00 0.00 0.00 46 1015.1
20260904043305 54 83 7.0 13.0 0.00 0.00 0.00 47 1014.4
20260904042306 55 53 6.0 9.0 0.00 0.00 0.00 47 1013.8
20260904041805 57 47 5.0 9.0 0.00 0.00 0.00 44 1014.7
20260904041305 56 70 5.0 8.0 0.00 0.00 0.00 44 1013.6
20260904040305 57 66 6.0 12.0 0.00 0.00 0.00 43 1015.3
20260904035805 57 70 8.0 10.0 0.00 0.00 0.00 45 1014.2
20260904035306 58 131 3.0 12.0 0.00 0.00 0.00 45 1014.8
20260904034805 58 72 5.0 9.0 0.00 0.00 0.00 42 1013.8
20260904034305 59 61 5.0 13.0 0.00 0.00 0.00 43 1014.8
20260904033305 59 65 9.0 12.0 0.00 0.00 0.00 39 1014.6
20260904032805 57 62 9.0 12.0 0.00 0.00 0.00 44 1013.7
20260904032306 60 63 6.0 12.0 0.00 0.00 0.00 40 1014.4
20260904031805 59 45 5.0 14.0 0.00 0.00 0.00 40 1013.1
20260904030807 61 56 7.0 13.0 0.00 0.00 0.00 38 1015.0
20260904030305 60 64 8.0 13.0 0.00 0.00 0.00 39 1013.7
20260904025804 60 56 8.0 12.0 0.00 0.00 0.00 39 1014.4
20260904025306 60 59 9.0 15.0 0.00 0.00 0.00 29 1013.4
20260904024804 60 73 10.0 18.0 0.00 0.00 0.00 38 1014.2